Time,TemperatureF,DewpointF,PressureIn,WindDirection,WindDirectionDegrees,WindSpeedMPH,WindSpeedGustMPH,Humidity,HourlyPrecipIn,Conditions,Clouds,dailyrainin,SoftwareType,DateUTC
2013-09-08 00:03:00,72.9,69.0,29.94,NE,48,0.0,0.0,86,0.00,,,0.00,weatherlink.com 1.10,2013-09-08 05:03:00,
2013-09-08 00:18:00,72.6,69.0,29.94,NE,48,0.0,0.0,87,0.00,,,0.00,weatherlink.com 1.10,2013-09-08 05:18:00,
2013-09-08 00:33:00,72.0,68.0,29.94,NE,48,0.0,0.0,88,0.00,,,0.00,weatherlink.com 1.10,2013-09-08 05:33:00,
2013-09-08 00:48:00,71.8,69.0,29.94,NE,48,0.0,0.0,89,0.00,,,0.00,weatherlink.com 1.10,2013-09-08 05:48:00,
2013-09-08 01:03:00,71.8,69.0,29.95,NNE,12,1.0,4.0,89,0.00,,,0.00,weatherlink.com 1.10,2013-09-08 06:03:00,
2013-09-08 01:18:00,71.1,68.0,29.95,North,5,0.0,1.0,91,0.00,,,0.00,weatherlink.com 1.10,2013-09-08 06:18:00,
2013-09-08 01:33:00,71.1,68.0,29.95,North,5,0.0,3.0,90,0.00,,,0.00,weatherlink.com 1.10,2013-09-08 06:33:00,
2013-09-08 01:48:00,70.6,68.0,29.95,North,5,1.0,3.0,91,0.00,,,0.00,weatherlink.com 1.10,2013-09-08 06:48:00,
2013-09-08 02:03:00,70.5,68.0,29.95,North,355,0.0,4.0,92,0.00,,,0.00,weatherlink.com 1.10,2013-09-08 07:03:00,
2013-09-08 02:18:00,70.8,68.0,29.95,NNW,348,1.0,4.0,92,0.00,,,0.00,weatherlink.com 1.10,2013-09-08 07:18:00,
2013-09-08 02:33:00,70.8,68.0,29.96,NE,52,0.0,4.0,92,0.00,,,0.00,weatherlink.com 1.10,2013-09-08 07:33:00,
2013-09-08 02:48:00,70.4,68.0,29.96,NE,36,2.0,5.0,92,0.00,,,0.00,weatherlink.com 1.10,2013-09-08 07:48:00,
2013-09-08 03:03:00,70.0,68.0,29.96,NE,49,0.0,7.0,92,0.00,,,0.00,weatherlink.com 1.10,2013-09-08 08:03:00,
2013-09-08 03:18:00,69.7,67.0,29.96,NNE,24,3.0,9.0,92,0.00,,,0.00,weatherlink.com 1.10,2013-09-08 08:18:00,
2013-09-08 03:33:00,69.3,67.0,29.97,North,5,1.0,8.0,92,0.00,,,0.00,weatherlink.com 1.10,2013-09-08 08:33:00,
2013-09-08 03:48:00,68.9,67.0,29.97,NNE,24,2.0,7.0,92,0.00,,,0.00,weatherlink.com 1.10,2013-09-08 08:48:00,
2013-09-08 04:03:00,68.8,66.0,29.97,NNE,17,2.0,5.0,92,0.00,,,0.00,weatherlink.com 1.10,2013-09-08 09:03:00,
2013-09-08 04:18:00,68.3,66.0,29.97,North,5,5.0,10.0,92,0.00,,,0.00,weatherlink.com 1.10,2013-09-08 09:18:00,
2013-09-08 04:33:00,68.0,66.0,29.97,SSE,164,0.0,8.0,92,0.00,,,0.00,weatherlink.com 1.10,2013-09-08 09:33:00,
2013-09-08 04:48:00,67.7,65.0,29.97,NE,44,0.0,10.0,92,0.00,,,0.00,weatherlink.com 1.10,2013-09-08 09:48:00,
2013-09-08 05:03:00,67.3,65.0,29.97,NNE,32,1.0,8.0,92,0.00,,,0.00,weatherlink.com 1.10,2013-09-08 10:03:00,
2013-09-08 05:18:00,67.1,65.0,29.99,North,360,0.0,6.0,92,0.00,,,0.00,weatherlink.com 1.10,2013-09-08 10:18:00,
2013-09-08 05:33:00,66.6,64.0,29.99,ENE,76,0.0,7.0,92,0.00,,,0.00,weatherlink.com 1.10,2013-09-08 10:33:00,
2013-09-08 05:48:00,66.3,64.0,29.99,NE,39,2.0,8.0,92,0.00,,,0.00,weatherlink.com 1.10,2013-09-08 10:48:00,
2013-09-08 06:03:00,66.1,64.0,30.00,NNW,342,4.0,6.0,92,0.00,,,0.00,weatherlink.com 1.10,2013-09-08 11:03:00,
2013-09-08 06:18:00,65.9,64.0,30.00,NNE,27,0.0,8.0,92,0.00,,,0.00,weatherlink.com 1.10,2013-09-08 11:18:00,
2013-09-08 06:33:00,65.8,64.0,30.01,North,5,2.0,3.0,92,0.00,,,0.00,weatherlink.com 1.10,2013-09-08 11:33:00,
2013-09-08 06:48:00,65.7,63.0,30.02,North,11,3.0,7.0,92,0.00,,,0.00,weatherlink.com 1.10,2013-09-08 11:48:00,
2013-09-08 07:03:00,65.6,63.0,30.02,ENE,65,2.0,9.0,92,0.00,,,0.00,weatherlink.com 1.10,2013-09-08 12:03:00,
2013-09-08 07:18:00,65.6,63.0,30.02,NNW,340,0.0,4.0,92,0.00,,,0.00,weatherlink.com 1.10,2013-09-08 12:18:00,
2013-09-08 07:33:00,65.6,64.0,30.02,East,90,0.0,5.0,93,0.00,,,0.00,weatherlink.com 1.10,2013-09-08 12:33:00,
2013-09-08 07:48:00,65.6,64.0,30.02,NE,42,0.0,7.0,93,0.00,,,0.00,weatherlink.com 1.10,2013-09-08 12:48:00,
2013-09-08 08:03:00,65.7,64.0,30.01,NNE,17,0.0,3.0,93,0.00,,,0.00,weatherlink.com 1.10,2013-09-08 13:03:00,
2013-09-08 08:18:00,65.9,64.0,30.01,North,360,0.0,6.0,93,0.00,,,0.00,weatherlink.com 1.10,2013-09-08 13:18:00,
2013-09-08 08:33:00,66.2,64.0,30.01,NE,54,0.0,7.0,92,0.00,,,0.00,weatherlink.com 1.10,2013-09-08 13:33:00,
2013-09-08 08:48:00,66.5,64.0,30.02,SE,130,1.0,7.0,92,0.00,,,0.00,weatherlink.com 1.10,2013-09-08 13:48:00,
2013-09-08 09:03:00,66.6,64.0,30.02,North,5,0.0,3.0,91,0.00,,,0.00,weatherlink.com 1.10,2013-09-08 14:03:00,
2013-09-08 09:18:00,67.0,64.0,30.02,NE,41,0.0,4.0,91,0.00,,,0.00,weatherlink.com 1.10,2013-09-08 14:18:00,
2013-09-08 09:33:00,67.3,64.0,30.03,NE,39,0.0,3.0,90,0.00,,,0.00,weatherlink.com 1.10,2013-09-08 14:33:00,
2013-09-08 09:49:00,67.4,65.0,30.04,North,355,1.0,3.0,90,0.00,,,0.00,weatherlink.com 1.10,2013-09-08 14:49:00,
2013-09-08 10:04:00,67.6,65.0,30.04,NE,34,0.0,3.0,90,0.00,,,0.00,weatherlink.com 1.10,2013-09-08 15:04:00,
2013-09-08 10:19:00,67.8,65.0,30.04,ENE,69,0.0,3.0,90,0.00,,,0.00,weatherlink.com 1.10,2013-09-08 15:19:00,
2013-09-08 10:34:00,68.1,65.0,30.04,ESE,105,0.0,4.0,89,0.00,,,0.00,weatherlink.com 1.10,2013-09-08 15:34:00,
2013-09-08 10:49:00,68.4,65.0,30.04,SSE,154,0.0,3.0,89,0.00,,,0.00,weatherlink.com 1.10,2013-09-08 15:49:00,
2013-09-08 11:04:00,68.7,65.0,30.04,NE,34,0.0,2.0,89,0.00,,,0.00,weatherlink.com 1.10,2013-09-08 16:04:00,
2013-09-08 11:19:00,69.1,66.0,30.04,North,350,0.0,3.0,89,0.00,,,0.00,weatherlink.com 1.10,2013-09-08 16:19:00,
2013-09-08 11:34:00,69.5,66.0,30.04,SSE,151,0.0,2.0,89,0.00,,,0.00,weatherlink.com 1.10,2013-09-08 16:34:00,
2013-09-08 11:49:00,69.7,66.0,30.04,NE,51,0.0,3.0,88,0.00,,,0.00,weatherlink.com 1.10,2013-09-08 16:49:00,
2013-09-08 12:04:00,69.9,66.0,30.04,NNW,336,0.0,2.0,88,0.00,,,0.00,weatherlink.com 1.10,2013-09-08 17:04:00,
2013-09-08 12:19:00,70.3,67.0,30.04,NNW,340,1.0,4.0,88,0.00,,,0.00,weatherlink.com 1.10,2013-09-08 17:19:00,
2013-09-08 12:34:00,70.7,67.0,30.04,NNE,22,0.0,1.0,88,0.00,,,0.00,weatherlink.com 1.10,2013-09-08 17:34:00,
2013-09-08 12:49:00,71.1,67.0,30.03,NE,48,1.0,3.0,87,0.00,,,0.00,weatherlink.com 1.10,2013-09-08 17:49:00,
2013-09-08 13:04:00,71.5,67.0,30.04,NE,45,1.0,4.0,86,0.00,,,0.00,weatherlink.com 1.10,2013-09-08 18:04:00,
2013-09-08 13:19:00,72.0,68.0,30.03,North,360,0.0,4.0,86,0.00,,,0.00,weatherlink.com 1.10,2013-09-08 18:19:00,
2013-09-08 13:34:00,72.5,68.0,30.02,NNW,339,0.0,2.0,85,0.00,,,0.00,weatherlink.com 1.10,2013-09-08 18:34:00,
2013-09-08 13:49:00,73.0,68.0,30.02,NNW,344,0.0,4.0,84,0.00,,,0.00,weatherlink.com 1.10,2013-09-08 18:49:00,
2013-09-08 14:04:00,73.6,68.0,30.01,NNE,25,0.0,5.0,83,0.00,,,0.00,weatherlink.com 1.10,2013-09-08 19:04:00,
2013-09-08 14:19:00,74.2,68.0,30.00,NNE,25,3.0,6.0,82,0.00,,,0.00,weatherlink.com 1.10,2013-09-08 19:19:00,
2013-09-08 14:34:00,74.6,69.0,30.00,NNE,17,0.0,3.0,82,0.00,,,0.00,weatherlink.com 1.10,2013-09-08 19:34:00,
2013-09-08 14:49:00,74.8,69.0,29.99,North,355,2.0,3.0,82,0.00,,,0.00,weatherlink.com 1.10,2013-09-08 19:49:00,
2013-09-08 15:04:00,74.8,69.0,29.99,ESE,123,0.0,4.0,81,0.00,,,0.00,weatherlink.com 1.10,2013-09-08 20:04:00,
2013-09-08 15:19:00,74.9,69.0,29.98,East,94,0.0,3.0,81,0.00,,,0.00,weatherlink.com 1.10,2013-09-08 20:19:00,
2013-09-08 15:34:00,75.0,69.0,29.97,NNE,32,0.0,5.0,81,0.00,,,0.00,weatherlink.com 1.10,2013-09-08 20:34:00,
2013-09-08 15:49:00,75.0,68.0,29.97,NE,40,2.0,3.0,80,0.00,,,0.00,weatherlink.com 1.10,2013-09-08 20:49:00,
2013-09-08 16:04:00,75.2,69.0,29.97,ESE,116,0.0,7.0,80,0.00,,,0.00,weatherlink.com 1.10,2013-09-08 21:04:00,
2013-09-08 16:19:00,74.6,68.0,29.96,North,5,0.0,3.0,81,0.00,,,0.00,weatherlink.com 1.10,2013-09-08 21:19:00,
2013-09-08 16:34:00,74.0,68.0,29.96,East,90,2.0,5.0,82,0.00,,,0.00,weatherlink.com 1.10,2013-09-08 21:34:00,
2013-09-08 16:49:00,73.8,68.0,29.96,East,101,0.0,3.0,82,0.00,,,0.00,weatherlink.com 1.10,2013-09-08 21:49:00,
2013-09-08 17:04:00,73.7,68.0,29.95,North,360,0.0,7.0,82,0.00,,,0.00,weatherlink.com 1.10,2013-09-08 22:04:00,
2013-09-08 17:19:00,73.6,68.0,29.95,North,5,2.0,3.0,82,0.00,,,0.00,weatherlink.com 1.10,2013-09-08 22:19:00,
2013-09-08 17:34:00,73.1,68.0,29.96,ESE,114,0.0,4.0,83,0.00,,,0.00,weatherlink.com 1.10,2013-09-08 22:34:00,
2013-09-08 17:49:00,72.9,68.0,29.96,NE,52,0.0,5.0,83,0.00,,,0.00,weatherlink.com 1.10,2013-09-08 22:49:00,
2013-09-08 18:04:00,72.5,67.0,29.96,East,86,0.0,2.0,83,0.00,,,0.00,weatherlink.com 1.10,2013-09-08 23:04:00,
2013-09-08 18:19:00,71.9,67.0,29.96,East,98,0.0,2.0,85,0.00,,,0.00,weatherlink.com 1.10,2013-09-08 23:19:00,
2013-09-08 18:34:00,71.4,67.0,29.96,NNE,28,0.0,1.0,85,0.00,,,0.00,weatherlink.com 1.10,2013-09-08 23:34:00,
2013-09-08 18:49:00,71.2,67.0,29.95,NNE,27,0.0,1.0,86,0.00,,,0.00,weatherlink.com 1.10,2013-09-08 23:49:00,
2013-09-08 19:04:00,70.9,67.0,29.95,NE,49,1.0,1.0,87,0.00,,,0.00,weatherlink.com 1.10,2013-09-09 00:04:00,
2013-09-08 19:19:00,70.6,67.0,29.95,NE,35,0.0,3.0,87,0.00,,,0.00,weatherlink.com 1.10,2013-09-09 00:19:00,
2013-09-08 19:34:00,70.1,67.0,29.95,NE,44,0.0,2.0,88,0.00,,,0.00,weatherlink.com 1.10,2013-09-09 00:34:00,
2013-09-08 19:49:00,69.7,66.0,29.96,North,9,0.0,4.0,88,0.00,,,0.00,weatherlink.com 1.10,2013-09-09 00:49:00,
2013-09-08 20:04:00,69.4,66.0,29.95,North,9,0.0,0.0,89,0.00,,,0.00,weatherlink.com 1.10,2013-09-09 01:04:00,
2013-09-08 20:19:00,69.2,66.0,29.96,North,9,0.0,0.0,89,0.00,,,0.00,weatherlink.com 1.10,2013-09-09 01:19:00,
2013-09-08 20:34:00,69.0,66.0,29.96,North,360,0.0,1.0,90,0.00,,,0.00,weatherlink.com 1.10,2013-09-09 01:34:00,
2013-09-08 20:49:00,68.8,66.0,29.97,NNE,25,0.0,4.0,90,0.00,,,0.00,weatherlink.com 1.10,2013-09-09 01:49:00,
2013-09-08 21:04:00,68.7,66.0,29.96,NNE,13,0.0,2.0,90,0.00,,,0.00,weatherlink.com 1.10,2013-09-09 02:04:00,
2013-09-08 21:34:00,68.4,65.0,29.96,NNE,19,0.0,3.0,90,0.00,,,0.00,weatherlink.com 1.10,2013-09-09 02:34:00,
2013-09-08 21:49:00,68.2,65.0,29.97,North,11,0.0,4.0,90,0.00,,,0.00,weatherlink.com 1.10,2013-09-09 02:49:00,
2013-09-08 22:04:00,67.9,65.0,29.97,North,5,0.0,3.0,91,0.00,,,0.00,weatherlink.com 1.10,2013-09-09 03:04:00,
2013-09-08 22:19:00,67.7,65.0,29.96,North,5,0.0,0.0,92,0.00,,,0.00,weatherlink.com 1.10,2013-09-09 03:19:00,
2013-09-08 22:34:00,67.5,65.0,29.96,North,5,0.0,0.0,92,0.00,,,0.00,weatherlink.com 1.10,2013-09-09 03:34:00,
2013-09-08 22:49:00,67.3,65.0,29.96,NNE,25,0.0,0.0,92,0.00,,,0.00,weatherlink.com 1.10,2013-09-09 03:49:00,
2013-09-08 23:04:00,67.2,65.0,29.96,North,5,1.0,3.0,92,0.00,,,0.00,weatherlink.com 1.10,2013-09-09 04:04:00,
2013-09-08 23:19:00,67.1,65.0,29.96,North,351,0.0,3.0,92,0.00,,,0.00,weatherlink.com 1.10,2013-09-09 04:19:00,
2013-09-08 23:34:00,67.1,65.0,29.95,NNE,12,0.0,3.0,92,0.00,,,0.00,weatherlink.com 1.10,2013-09-09 04:34:00,
2013-09-08 23:49:00,67.3,65.0,29.96,North,9,0.0,3.0,92,0.00,,,0.00,weatherlink.com 1.10,2013-09-09 04:49:00,